�������l�o���
Date,Time,MP-1(��Sv/h),MP-2(��Sv/h),MP-3(��Sv/h),MP-4(��Sv/h),MP-5(��Sv/h),MP-6(��Sv/h),MP-7(��Sv/h),MP-8(��Sv/h),����,����(m/s),���J
2022/01/16,00:00,0.577,0.867,0.549,1.060,0.740,0.347,0.606,0.575,��,6.6,��
2022/01/16,00:10,0.574,0.866,0.548,1.061,0.740,0.349,0.607,0.577,��,6.3,��
2022/01/16,00:20,0.575,0.864,0.548,1.061,0.742,0.347,0.607,0.577,��,6.0,��
2022/01/16,00:30,0.575,0.863,0.549,1.062,0.741,0.349,0.606,0.576,��,5.1,��
2022/01/16,00:40,0.574,0.864,0.550,1.059,0.742,0.347,0.607,0.576,���쐼,5.8,��
2022/01/16,00:50,0.574,0.866,0.551,1.059,0.740,0.347,0.607,0.576,���쐼,6.4,��
2022/01/16,01:00,0.576,0.865,0.549,1.058,0.742,0.348,0.609,0.575,���쐼,6.5,��
2022/01/16,01:10,0.573,0.866,0.549,1.061,0.740,0.346,0.607,0.576,��,6.8,��
2022/01/16,01:20,0.574,0.864,0.550,1.061,0.741,0.347,0.608,0.575,��,6.5,��
2022/01/16,01:30,0.576,0.865,0.546,1.062,0.740,0.349,0.607,0.576,���쐼,5.8,��
2022/01/16,01:40,0.575,0.864,0.548,1.060,0.741,0.347,0.607,0.576,��,5.8,��
2022/01/16,01:50,0.575,0.865,0.548,1.062,0.739,0.348,0.609,0.577,��,5.3,��
2022/01/16,02:00,0.574,0.866,0.549,1.058,0.742,0.348,0.607,0.577,��,4.8,��
2022/01/16,02:10,0.575,0.866,0.549,1.059,0.740,0.349,0.609,0.576,��,4.2,��
2022/01/16,02:20,0.576,0.865,0.549,1.061,0.740,0.347,0.607,0.577,���k��,2.2,��
2022/01/16,02:30,0.574,0.864,0.549,1.060,0.741,0.347,0.606,0.575,���k��,2.0,��
2022/01/16,02:40,0.575,0.865,0.550,1.059,0.740,0.349,0.608,0.577,���쐼,2.0,��
2022/01/16,02:50,0.575,0.865,0.548,1.058,0.740,0.348,0.608,0.577,��,1.9,��
2022/01/16,03:00,0.575,0.864,0.548,1.059,0.740,0.347,0.607,0.576,���쐼,2.8,��
2022/01/16,03:10,0.574,0.865,0.548,1.060,0.740,0.349,0.606,0.577,��,4.9,��
2022/01/16,03:20,0.574,0.865,0.549,1.061,0.740,0.348,0.607,0.579,���k��,4.9,��
2022/01/16,03:30,0.574,0.866,0.548,1.060,0.741,0.348,0.608,0.577,���k��,4.7,��
2022/01/16,03:40,0.573,0.864,0.548,1.059,0.740,0.348,0.607,0.576,���k��,5.0,��
2022/01/16,03:50,0.574,0.863,0.547,1.062,0.738,0.348,0.608,0.576,���k��,5.5,��
2022/01/16,04:00,0.575,0.864,0.548,1.060,0.739,0.347,0.608,0.577,���k��,5.0,��
2022/01/16,04:10,0.575,0.866,0.548,1.061,0.740,0.347,0.606,0.576,���k��,3.6,��
2022/01/16,04:20,0.575,0.865,0.550,1.060,0.740,0.349,0.608,0.577,��,2.8,��
2022/01/16,04:30,0.573,0.864,0.549,1.059,0.740,0.348,0.608,0.578,��,2.8,��
2022/01/16,04:40,0.575,0.865,0.550,1.060,0.740,0.347,0.607,0.577,���k��,2.6,��
2022/01/16,04:50,0.576,0.864,0.549,1.061,0.740,0.349,0.606,0.577,���k��,2.0,��
2022/01/16,05:00,0.574,0.866,0.550,1.063,0.740,0.347,0.607,0.575,���k��,2.2,��
2022/01/16,05:10,0.575,0.863,0.548,1.061,0.739,0.347,0.607,0.577,���k��,2.3,��
2022/01/16,05:20,0.575,0.864,0.547,1.059,0.738,0.347,0.606,0.578,��,2.3,��
2022/01/16,05:30,0.575,0.864,0.547,1.059,0.739,0.348,0.607,0.577,���쐼,3.4,��
2022/01/16,05:40,0.575,0.864,0.547,1.060,0.738,0.348,0.606,0.576,���쐼,4.7,��
2022/01/16,05:50,0.574,0.866,0.549,1.061,0.738,0.348,0.606,0.577,��,5.8,��
2022/01/16,06:00,0.576,0.865,0.549,1.059,0.739,0.348,0.607,0.576,��,4.3,��
2022/01/16,06:10,0.574,0.864,0.548,1.062,0.737,0.347,0.606,0.577,���쐼,2.8,��
2022/01/16,06:20,0.574,0.864,0.548,1.059,0.739,0.347,0.606,0.576,�쐼,1.4,��
2022/01/16,06:30,0.574,0.864,0.548,1.060,0.739,0.347,0.608,0.576,���쐼,1.2,��
2022/01/16,06:40,0.575,0.864,0.548,1.060,0.740,0.348,0.607,0.579,���쐼,1.4,��
2022/01/16,06:50,0.573,0.860,0.549,1.058,0.741,0.348,0.608,0.575,�k��,0.6,��
2022/01/16,07:00,0.572,0.864,0.547,1.059,0.739,0.349,0.606,0.578,-,CALM,��
2022/01/16,07:10,0.574,0.864,0.549,1.060,0.739,0.348,0.606,0.576,-,CALM,��
2022/01/16,07:20,0.574,0.864,0.549,1.060,0.740,0.349,0.607,0.577,-,CALM,��
2022/01/16,07:30,0.575,0.863,0.547,1.060,0.739,0.347,0.608,0.575,-,CALM,��
2022/01/16,07:40,0.574,0.865,0.547,1.060,0.739,0.347,0.608,0.576,��,0.8,��
2022/01/16,07:50,0.574,0.865,0.549,1.061,0.739,0.348,0.607,0.575,-,CALM,��
2022/01/16,08:00,0.574,0.866,0.547,1.060,0.739,0.348,0.605,0.577,���쐼,0.8,��
2022/01/16,08:10,0.575,0.867,0.547,1.062,0.740,0.348,0.607,0.577,�쐼,2.0,��
2022/01/16,08:20,0.574,0.865,0.548,1.061,0.740,0.348,0.607,0.577,��,1.5,��
2022/01/16,08:30,0.574,0.865,0.549,1.062,0.738,0.349,0.607,0.577,��쓌,1.4,��
2022/01/16,08:40,0.576,0.865,0.548,1.060,0.740,0.347,0.607,0.577,��쓌,1.4,��
2022/01/16,08:50,0.576,0.866,0.548,1.062,0.740,0.349,0.608,0.577,��쓌,2.2,��
2022/01/16,09:00,0.575,0.864,0.548,1.061,0.739,0.348,0.610,0.575,��쓌,2.6,��
2022/01/16,09:10,0.577,0.866,0.551,1.063,0.740,0.348,0.609,0.578,��,3.1,��
2022/01/16,09:20,0.577,0.867,0.548,1.061,0.741,0.349,0.611,0.577,��,2.9,��
2022/01/16,09:30,0.577,0.866,0.549,1.063,0.741,0.350,0.609,0.577,��쓌,2.6,��
2022/01/16,09:40,0.576,0.869,0.550,1.060,0.742,0.349,0.610,0.579,��쓌,4.0,��
2022/01/16,09:50,0.579,0.868,0.552,1.061,0.740,0.348,0.609,0.577,�쓌,3.6,��
2022/01/16,10:00,0.578,0.867,0.551,1.061,0.741,0.349,0.607,0.577,�쓌,2.5,��
2022/01/16,10:10,0.577,0.869,0.551,1.061,0.741,0.350,0.608,0.577,�쓌,2.6,��
2022/01/16,10:20,0.577,0.868,0.550,1.063,0.740,0.349,0.606,0.577,�쓌,3.0,��
2022/01/16,10:30,0.578,0.867,0.547,1.062,0.740,0.349,0.606,0.577,�쓌,3.9,��
2022/01/16,10:40,0.578,0.864,0.550,1.061,0.743,0.349,0.606,0.576,�쓌,4.0,��
2022/01/16,10:50,0.577,0.866,0.551,1.062,0.743,0.348,0.606,0.577,��쓌,5.0,��
2022/01/16,11:00,0.576,0.864,0.552,1.062,0.742,0.349,0.607,0.577,��쓌,4.6,��
2022/01/16,11:10,0.578,0.864,0.550,1.062,0.745,0.349,0.607,0.578,��,4.6,��
2022/01/16,11:20,0.579,0.866,0.551,1.061,0.742,0.350,0.607,0.577,��쓌,4.7,��
2022/01/16,11:30,0.580,0.868,0.554,1.061,0.744,0.350,0.607,0.577,��쓌,5.3,��
2022/01/16,11:40,0.579,0.870,0.550,1.063,0.743,0.350,0.609,0.577,��쓌,5.9,��
2022/01/16,11:50,0.579,0.868,0.552,1.064,0.743,0.350,0.610,0.578,��쓌,7.1,��
2022/01/16,12:00,0.580,0.871,0.551,1.063,0.744,0.350,0.609,0.578,��쓌,7.9,��
2022/01/16,12:10,0.579,0.871,0.553,1.061,0.744,0.349,0.609,0.578,��쓌,9.1,��
2022/01/16,12:20,0.580,0.872,0.553,1.063,0.744,0.350,0.609,0.577,��쓌,8.3,��
2022/01/16,12:30,0.583,0.871,0.553,1.064,0.745,0.351,0.609,0.578,��,8.7,��
2022/01/16,12:40,0.579,0.871,0.554,1.064,0.742,0.351,0.607,0.579,��쓌,8.3,��
2022/01/16,12:50,0.581,0.871,0.552,1.063,0.744,0.351,0.609,0.578,��쓌,11.0,��
2022/01/16,13:00,0.580,0.871,0.552,1.061,0.741,0.351,0.608,0.579,��쓌,9.4,��
2022/01/16,13:10,0.581,0.869,0.552,1.064,0.745,0.352,0.612,0.577,��쓌,8.7,��
2022/01/16,13:20,0.580,0.869,0.553,1.063,0.743,0.352,0.610,0.577,��,6.8,��
2022/01/16,13:30,0.580,0.869,0.552,1.064,0.743,0.351,0.611,0.575,��,8.5,��
2022/01/16,13:40,0.580,0.869,0.553,1.061,0.745,0.352,0.608,0.576,��,7.5,��
2022/01/16,13:50,0.579,0.870,0.553,1.063,0.745,0.349,0.609,0.575,��,8.8,��
2022/01/16,14:00,0.581,0.869,0.554,1.065,0.744,0.353,0.610,0.575,��쓌,8.7,��
2022/01/16,14:10,0.581,0.867,0.553,1.062,0.746,0.352,0.610,0.575,��쓌,9.6,��
2022/01/16,14:20,0.580,0.867,0.552,1.061,0.745,0.349,0.610,0.576,��쓌,8.2,��
2022/01/16,14:30,0.579,0.868,0.553,1.066,0.748,0.352,0.611,0.575,��쓌,9.3,��
2022/01/16,14:40,0.582,0.867,0.553,1.064,0.749,0.352,0.610,0.575,��,9.4,��
2022/01/16,14:50,0.579,0.868,0.553,1.065,0.746,0.353,0.610,0.576,��쓌,10.4,��
2022/01/16,15:00,0.580,0.867,0.553,1.064,0.748,0.350,0.611,0.576,��쓌,9.9,��
2022/01/16,15:10,0.581,0.873,0.550,1.065,0.746,0.350,0.611,0.576,��쓌,9.6,��
2022/01/16,15:20,0.580,0.871,0.553,1.065,0.747,0.350,0.610,0.578,��,8.7,��
2022/01/16,15:30,0.580,0.870,0.553,1.064,0.747,0.351,0.612,0.579,��쓌,9.9,��
2022/01/16,15:40,0.580,0.870,0.554,1.063,0.746,0.351,0.611,0.578,��,7.2,��
2022/01/16,15:50,0.580,0.869,0.553,1.064,0.744,0.351,0.611,0.578,��,8.5,��
2022/01/16,16:00,0.580,0.871,0.553,1.062,0.744,0.350,0.612,0.578,��,8.1,��
2022/01/16,16:10,0.579,0.871,0.553,1.064,0.745,0.351,0.609,0.577,��,8.5,��
2022/01/16,16:20,0.581,0.872,0.554,1.065,0.745,0.353,0.609,0.578,��,7.7,��
2022/01/16,16:30,0.581,0.870,0.552,1.063,0.745,0.351,0.610,0.579,��,6.4,��
2022/01/16,16:40,0.579,0.869,0.554,1.064,0.746,0.353,0.611,0.578,��,7.8,��
2022/01/16,16:50,0.581,0.869,0.553,1.063,0.746,0.351,0.610,0.577,��,7.5,��
2022/01/16,17:00,0.582,0.872,0.554,1.063,0.745,0.351,0.610,0.577,��,7.9,��
2022/01/16,17:10,0.579,0.871,0.553,1.063,0.747,0.351,0.611,0.577,��쐼,7.9,��
2022/01/16,17:20,0.579,0.870,0.551,1.062,0.748,0.351,0.612,0.579,��쐼,6.9,��
2022/01/16,17:30,0.579,0.870,0.554,1.063,0.745,0.350,0.610,0.577,�쐼,5.0,��
2022/01/16,17:40,0.582,0.869,0.551,1.065,0.745,0.350,0.609,0.578,��쐼,6.8,��
2022/01/16,17:50,0.580,0.870,0.553,1.062,0.746,0.351,0.609,0.578,��쐼,6.3,��
2022/01/16,18:00,0.579,0.870,0.553,1.063,0.744,0.351,0.610,0.577,��쐼,6.0,��
2022/01/16,18:10,0.581,0.872,0.553,1.063,0.748,0.350,0.610,0.577,��쐼,4.3,��
2022/01/16,18:20,0.580,0.870,0.553,1.062,0.746,0.350,0.609,0.578,��쐼,4.7,��
2022/01/16,18:30,0.579,0.869,0.553,1.064,0.747,0.352,0.609,0.577,��쐼,1.9,��
2022/01/16,18:40,0.581,0.869,0.552,1.063,0.748,0.350,0.610,0.578,���쐼,1.7,��
2022/01/16,18:50,0.580,0.871,0.551,1.064,0.745,0.352,0.610,0.577,���k��,0.6,��
2022/01/16,19:00,0.581,0.870,0.554,1.064,0.746,0.352,0.609,0.577,-,CALM,��
2022/01/16,19:10,0.578,0.869,0.552,1.065,0.746,0.349,0.609,0.578,��쐼,1.2,��
2022/01/16,19:20,0.580,0.870,0.552,1.064,0.746,0.351,0.609,0.578,�쐼,1.5,��
2022/01/16,19:30,0.580,0.869,0.553,1.062,0.747,0.352,0.607,0.578,���쐼,1.7,��
2022/01/16,19:40,0.579,0.870,0.553,1.064,0.745,0.350,0.611,0.577,���쐼,1.7,��
2022/01/16,19:50,0.580,0.871,0.553,1.063,0.746,0.350,0.610,0.577,��,1.4,��
2022/01/16,20:00,0.579,0.870,0.553,1.063,0.747,0.351,0.610,0.576,�k��,0.9,��
2022/01/16,20:10,0.579,0.869,0.553,1.064,0.747,0.349,0.608,0.578,��,1.4,��
2022/01/16,20:20,0.579,0.869,0.552,1.063,0.746,0.350,0.611,0.578,�쐼,2.0,��
2022/01/16,20:30,0.578,0.869,0.552,1.063,0.746,0.350,0.608,0.577,���쐼,3.5,��
2022/01/16,20:40,0.577,0.868,0.553,1.063,0.746,0.351,0.609,0.577,���쐼,4.6,��
2022/01/16,20:50,0.578,0.869,0.554,1.063,0.747,0.351,0.610,0.578,�쐼,4.2,��
2022/01/16,21:00,0.579,0.870,0.553,1.064,0.747,0.350,0.608,0.579,���쐼,4.8,��
2022/01/16,21:10,0.579,0.870,0.551,1.062,0.746,0.351,0.611,0.579,���쐼,4.2,��
2022/01/16,21:20,0.578,0.869,0.553,1.065,0.745,0.352,0.610,0.578,���쐼,5.6,��
2022/01/16,21:30,0.580,0.868,0.550,1.063,0.747,0.352,0.610,0.577,���쐼,5.4,��
2022/01/16,21:40,0.580,0.870,0.550,1.063,0.746,0.349,0.610,0.578,�쐼,5.0,��
2022/01/16,21:50,0.578,0.870,0.554,1.064,0.745,0.351,0.609,0.577,�쐼,5.2,��
2022/01/16,22:00,0.580,0.869,0.552,1.064,0.745,0.350,0.608,0.578,��,5.7,��
2022/01/16,22:10,0.579,0.870,0.554,1.064,0.745,0.350,0.610,0.576,���쐼,3.8,��
2022/01/16,22:20,0.578,0.868,0.551,1.064,0.747,0.350,0.610,0.577,��,4.6,��
2022/01/16,22:30,0.580,0.872,0.553,1.067,0.745,0.350,0.610,0.578,��,4.1,��
2022/01/16,22:40,0.579,0.868,0.553,1.063,0.746,0.352,0.610,0.579,�k��,2.3,��
2022/01/16,22:50,0.581,0.868,0.553,1.065,0.745,0.352,0.610,0.578,�k�k��,4.5,��
2022/01/16,23:00,0.579,0.870,0.555,1.062,0.746,0.351,0.608,0.578,�k��,3.4,��
2022/01/16,23:10,0.579,0.868,0.553,1.064,0.747,0.350,0.610,0.579,�k��,3.9,��
2022/01/16,23:20,0.580,0.869,0.551,1.064,0.743,0.351,0.611,0.577,�k��,4.6,��
2022/01/16,23:30,0.580,0.870,0.552,1.063,0.745,0.349,0.610,0.577,���k��,3.4,��
2022/01/16,23:40,0.579,0.871,0.553,1.062,0.746,0.351,0.610,0.577,���k��,3.1,��
2022/01/16,23:50,0.580,0.869,0.554,1.063,0.747,0.351,0.609,0.579,���k��,3.2,��
